STARLINK-11511, 62468

Orbit data source: Space-Track

STARLINK-11511, 62468 is a payload satellite owned by SpaceX/Seattle (US) in LEO that was launched on Tue, 31 Dec 2024 UTC via an FALCON 9 launch vehicle from the Air Force Eastern Test Range (AFETR). Payloads include a variety of satellites, spacecraft, and rockets equipped with specific instruments for various scientific and technological missions. These include communications satellites like Starlink; space stations such as the ISS; scientific satellites like the Hubble; Earth observation satellites from companies like Planet Labs, Umbra, and HawkEye 360; GPS; miniature CubeSats for education and research; and military/defense satellites.

Loading next visibility...
STARLINK-11511 details
Identifier
62468, 2024-254G
Orbit
LEO
Last TLE update15 hours ago
Origin
Flag of USSpaceX/Seattle (US)
ManufacturerSpaceX/Seattle
MissionOperational Commercial Communications
Bus & MotorSTARLINK V2M, Unknown motor
Mass730 kg wet, ~700 kg dry
Launch date (UTC)
2024-12-31 (1 month ago)
Launch vehicle
FALCON 9
Launch site
Air Force Eastern Test Range (AFETR)
Object type
Payload
Rocket body
Debris
Shape & HBRBox + 2 Pan, 29 m
Radar Cross Section36.964 m², Large (>1 m²)

Expand to show TLE details & history

TLE from 15 hours ago
0 STARLINK-11511
1 62468U 24254G   25035.57687320  .00008764  00000-0  53204-4 0  9999
2 62468  43.0013 103.9956 0002343 286.5510  73.5102 15.77845446  6770
Epoch: 2025-02-04T13:50Z
Definitive object data (Epoch: 2025-02-04T13:50:41.844Z)
Latitude-0.00007°
Longitude121.341°
Altitude335.871 km
Speed7.709 km/s
True Right ascension06h 55m 58s
True Declination0° 00' 00"
Sunlit
Object was in full shadow at TLE epoch
Visualization TLE readout
Latitude-42.25324°
Longitude13.20996°
Altitude348.111 km
Speed7.701 km/s
Apparent Right ascension21h 12m 36s
Apparent Declination-47° 46' 45"
Sunlit
Object is in daylight
Visualization observer readout
Local Sidereal Time06:38:35
Azimuth241.141° WSW
Elevation-61.465°
Doppler factor1
Orbital elements
Apogee altitude340.107 km
Perigee altitude336.96 km
Semi-major axis6,716.671 km
Eccentricity0.0002343
Inclination43.0013°
RAAN103.9956°
Arg. of periapsis286.551°
True anomaly73.53595°
Mean anomaly73.5102°
Eccentric anomaly73.52307°
Mean motion3.94287 °/min
BSTAR0.000053204
Orbital period91.3 mins
Loading maneuver chart data...
Loading historical data...
Loading historical data...
Loading historical data...
Loading historical data...
Loading historical data...
Loading historical data...
Loading historical data...

STARLINK-11511 Visibility forecast

Observer location: undefined°, undefined

Span
Click to sort rows by Start time (UTC) header in descending order
Start Az.
Max El. time (UTC)
Max El. Az.
Max El.
End time (UTC)
End Az.
5 mins2025-02-05 08:18:43.114Z234.437° WSW2025-02-05 08:20:43.114Z183.259° SSW39.119°2025-02-05 08:23:43.114Z77.022° E
4 mins2025-02-05 13:06:43.114Z262.578° W2025-02-05 13:07:43.114Z231.814° WSW28.624°2025-02-05 13:10:43.114Z138.998° SSE
|